Weather History for La Junta, CO

Change the Weather History Date:

Saturday, January 5, 2013

  Actual Average Record
Temperature  
Mean Temperature 30 °F 30 °F  
Max Temperature 48 °F 44 °F 74 °F (1956)
Min Temperature 11 °F 17 °F -14 °F (1971)
Degree Days  
Heating Degree Days 35 34  
Month to date heating degree days 201 174  
Since 1 July heating degree days 2143 2377  
Cooling Degree Days 0 0  
Month to date cooling degree days 0 0  
Year to date cooling degree days 0 0  
Moisture  
Dew Point 8 °F    
Average Humidity 44    
Maximum Humidity 62    
Minimum Humidity 26    
Precipitation  
Precipitation 0.00 in 0.01 in 0.07 in (1955)
Month to date precipitation 0.00 0.05  
Year to date precipitation 0.00 0.05  
Sea Level Pressure  
Sea Level Pressure 30.26 in    
Wind  
Wind Speed 11 mph (NW)    
Max Wind Speed 20 mph    
Max Gust Speed 23 mph    
Visibility 10 miles    
Events      
T = Trace of Precipitation, MM = Missing Value Source: NWS Daily Summary

Daily Weather History Graph

Daily Weather History Graph

Search for Another Location

Airport:

Trip Planner

Search our weather history database for the weather conditions in past years. The results will help you decide how hot, cold, wet, or windy it might be!

Date:

Astronomy

Jan. 05, 2013 Rise Set
Actual Time 7:10 AM MST 4:48 PM MST
Civil Twilight 6:41 AM MST 5:18 PM MST
Nautical Twilight 6:08 AM MST 5:50 PM MST
Astronomical Twilight 5:36 AM MST 6:22 PM MST
Moon 12:22 AM MST (1/5) 11:37 AM MST (1/5)
Length of Visible Light 10h 36m
Length of Day
9h 38m
Last Quarter, 43% of the Moon is Illuminated
Jan 5
Last Quarter
Jan 11
New
Jan 18
First Quarter
Jan 26
Full
Feb 3
Last Quarter

Hourly Weather History & Observations

Time (MST) Temp. Windchill Dew Point Humidity Pressure Visibility Wind Dir Wind Speed Gust Speed Precip Events Conditions
12:53 AM 14.0 °F 8.2 °F -0.9 °F 52% 30.06 in 10.0 mi Variable 3.5 mph - N/A   Clear
1:53 AM 15.1 °F -1.1 °F -2.9 °F 45% 30.05 in 10.0 mi West 17.3 mph - N/A   Clear
2:53 AM 16.0 °F -0.4 °F -2.9 °F 43% 30.06 in 10.0 mi West 18.4 mph - N/A   Clear
3:53 AM 21.0 °F 7.6 °F 1.0 °F 42% 30.07 in 10.0 mi WNW 15.0 mph - N/A   Clear
4:53 AM 19.0 °F 5.0 °F -0.0 °F 43% 30.12 in 10.0 mi West 15.0 mph - N/A   Clear
5:53 AM 21.9 °F 8.2 °F 1.9 °F 42% 30.15 in 10.0 mi West 16.1 mph - N/A   Clear
6:53 AM 19.0 °F 5.6 °F 1.9 °F 47% 30.23 in 10.0 mi West 13.8 mph - N/A   Clear
7:53 AM 17.1 °F 3.0 °F 1.0 °F 50% 30.29 in 10.0 mi West 13.8 mph - N/A   Clear
8:53 AM 27.0 °F 15.6 °F 3.9 °F 37% 30.31 in 10.0 mi West 13.8 mph - N/A   Clear
9:53 AM 39.9 °F 31.4 °F 10.0 °F 29% 30.29 in 10.0 mi NNW 16.1 mph - N/A   Clear
10:53 AM 44.1 °F 37.4 °F 12.0 °F 27% 30.27 in 10.0 mi North 13.8 mph - N/A   Clear
11:53 AM 45.0 °F 38.5 °F 12.9 °F 27% 30.27 in 10.0 mi North 13.8 mph - N/A   Clear
12:53 PM 46.9 °F - 14.0 °F 27% 30.25 in 10.0 mi North 13.8 mph 23.0 mph N/A   Clear
1:53 PM 46.9 °F - 15.1 °F 28% 30.25 in 10.0 mi North 11.5 mph - N/A   Clear
2:53 PM 46.9 °F - 15.1 °F 28% 30.27 in 10.0 mi NNE 12.7 mph - N/A   Clear
3:53 PM 45.0 °F 39.3 °F 16.0 °F 31% 30.28 in 10.0 mi NE 11.5 mph - N/A   Clear
4:53 PM 39.0 °F 34.0 °F 15.1 °F 38% 30.32 in 10.0 mi NNE 6.9 mph - N/A   Clear
5:53 PM 33.1 °F 27.7 °F 14.0 °F 46% 30.35 in 10.0 mi NNE 5.8 mph - N/A   Clear
6:53 PM 28.9 °F 21.9 °F 12.9 °F 51% 30.39 in 10.0 mi North 6.9 mph - N/A   Clear
7:53 PM 30.9 °F 27.5 °F 15.1 °F 52% 30.40 in 10.0 mi North 3.5 mph - N/A   Clear
8:53 PM 28.9 °F - 16.0 °F 58% 30.39 in 10.0 mi Calm Calm - N/A   Clear
9:53 PM 21.9 °F 12.5 °F 10.9 °F 63% 30.38 in 10.0 mi West 8.1 mph - N/A   Clear
10:53 PM 21.0 °F 10.6 °F 10.9 °F 65% 30.37 in 10.0 mi WNW 9.2 mph - N/A   Clear
11:53 PM 19.9 °F 6.7 °F 9.0 °F 62% 30.36 in 10.0 mi West 13.8 mph - N/A   Clear